Precipitable_Water
0.73 0.85 0.89 0.92 1.12 1.23 1.23 1.24 1.26 1.25 1.25 1.26 1.23 1.14 1.14 1.15 1.08 0.97 0.88 0.85 0.83 0.78 0.73 0.71 0.67 0.62 0.57 0.52 0.46 0.42 0.40 0.39
0.84 0.89 0.94 0.99 1.17 1.19 1.19 1.20 1.23 1.28 1.20 1.04 0.92 1.02 1.04 0.94 0.85 0.83 0.83 0.83 0.78 0.74 0.70 0.67 0.63 0.54 0.52 0.51 0.48 0.43 0.40 0.38
0.85 0.93 0.98 1.03 1.13 1.16 1.20 1.23 1.22 1.18 0.98 1.00 1.01 0.92 0.86 0.85 0.83 0.84 0.85 0.80 0.77 0.70 0.70 0.65 0.60 0.51 0.45 0.45 0.46 0.43 0.42 0.42
0.82 0.92 0.99 1.05 1.09 1.15 1.24 1.21 1.11 1.05 1.02 0.95 0.93 0.89 0.85 0.80 0.81 0.83 0.83 0.79 0.74 0.70 0.67 0.60 0.53 0.49 0.46 0.48 0.48 0.46 0.41 0.43
0.85 0.92 0.98 1.03 1.11 1.21 1.10 1.05 1.04 1.02 0.92 0.89 0.84 0.79 0.77 0.81 0.82 0.84 0.80 0.78 0.74 0.66 0.60 0.57 0.55 0.53 0.50 0.50 0.51 0.50 0.46 0.41
0.85 0.92 0.98 1.04 1.04 1.02 1.04 1.04 0.98 0.92 0.90 0.87 0.84 0.84 0.87 0.87 0.82 0.81 0.78 0.75 0.69 0.65 0.61 0.59 0.57 0.54 0.53 0.52 0.52 0.51 0.49 0.46
0.81 0.88 0.91 0.92 0.99 0.99 0.96 0.92 0.89 0.89 0.87 0.88 0.87 0.85 0.79 0.77 0.76 0.71 0.68 0.62 0.58 0.58 0.59 0.58 0.55 0.51 0.48 0.46 0.46 0.45 0.47 0.51
0.70 0.73 0.78 0.82 0.86 0.88 0.88 0.84 0.81 0.85 0.87 0.88 0.86 0.83 0.77 0.73 0.72 0.66 0.61 0.56 0.54 0.53 0.54 0.48 0.43 0.41 0.41 0.42 0.42 0.45 0.46 0.51
0.68 0.69 0.72 0.76 0.80 0.83 0.82 0.82 0.81 0.86 0.85 0.82 0.81 0.75 0.75 0.76 0.68 0.64 0.55 0.53 0.48 0.47 0.43 0.42 0.40 0.39 0.38 0.39 0.41 0.43 0.46 0.51
0.65 0.68 0.72 0.75 0.79 0.82 0.82 0.82 0.81 0.82 0.80 0.78 0.77 0.76 0.72 0.65 0.62 0.56 0.52 0.47 0.43 0.39 0.40 0.38 0.37 0.36 0.36 0.38 0.38 0.41 0.44 0.47
0.64 0.68 0.72 0.76 0.81 0.84 0.85 0.84 0.80 0.79 0.77 0.76 0.73 0.73 0.72 0.62 0.54 0.50 0.45 0.43 0.41 0.39 0.37 0.36 0.36 0.37 0.37 0.37 0.39 0.41 0.40 0.41
0.64 0.68 0.74 0.79 0.83 0.82 0.82 0.79 0.75 0.75 0.74 0.72 0.71 0.73 0.60 0.53 0.49 0.45 0.42 0.42 0.40 0.36 0.36 0.36 0.36 0.36 0.38 0.36 0.38 0.38 0.37 0.38
0.63 0.68 0.73 0.77 0.78 0.77 0.75 0.73 0.74 0.72 0.72 0.73 0.76 0.63 0.52 0.48 0.45 0.43 0.42 0.40 0.38 0.36 0.36 0.36 0.36 0.35 0.35 0.34 0.34 0.35 0.34 0.33
0.61 0.66 0.69 0.71 0.71 0.71 0.69 0.70 0.69 0.71 0.72 0.69 0.60 0.54 0.50 0.46 0.43 0.43 0.42 0.39 0.37 0.36 0.37 0.36 0.35 0.35 0.35 0.36 0.34 0.34 0.32 0.31
0.59 0.63 0.65 0.67 0.67 0.67 0.66 0.65 0.70 0.71 0.65 0.59 0.50 0.50 0.48 0.43 0.42 0.42 0.41 0.38 0.37 0.37 0.37 0.37 0.35 0.35 0.34 0.33 0.31 0.30 0.29 0.26
0.53 0.58 0.61 0.64 0.62 0.64 0.62 0.66 0.68 0.66 0.60 0.50 0.48 0.48 0.45 0.43 0.43 0.42 0.39 0.38 0.38 0.38 0.36 0.35 0.36 0.34 0.31 0.30 0.28 0.26 0.24 0.23
0.51 0.55 0.60 0.60 0.58 0.60 0.62 0.63 0.62 0.59 0.53 0.52 0.50 0.43 0.42 0.42 0.42 0.39 0.37 0.36 0.36 0.36 0.37 0.35 0.34 0.33 0.31 0.29 0.27 0.25 0.23 0.22
0.50 0.55 0.58 0.59 0.57 0.58 0.60 0.58 0.56 0.57 0.54 0.50 0.44 0.42 0.40 0.41 0.37 0.36 0.35 0.34 0.35 0.35 0.34 0.35 0.33 0.34 0.32 0.29 0.26 0.24 0.22 0.22
0.51 0.54 0.58 0.59 0.60 0.59 0.56 0.56 0.56 0.55 0.51 0.45 0.39 0.42 0.41 0.38 0.36 0.35 0.34 0.35 0.34 0.33 0.34 0.34 0.33 0.34 0.32 0.28 0.25 0.24 0.23 0.23
Wind_Speed
10 10 10 11 11 10 11 12 13 14 17 18 20 22 19 16 16 17 18 20 22 24 25 27 29 31 32 33 34 35 35 37
10 11 11 11 12 12 13 14 15 17 17 17 13 15 15 15 16 17 18 20 22 25 27 29 30 32 33 34 35 37 37 38
12 12 12 13 13 15 15 16 16 15 14 13 14 14 14 15 17 18 20 23 25 27 29 31 33 35 36 37 38 39 39 40
14 14 14 15 15 16 15 14 13 12 11 12 13 13 14 17 19 21 23 25 28 30 32 34 36 37 37 39 39 41 41 42
15 15 15 15 14 13 12 12 11 11 11 12 13 15 17 19 21 23 26 28 30 32 34 36 37 38 39 40 41 43 43 44
16 15 14 13 12 11 11 11 11 11 13 14 15 18 19 21 23 25 28 30 31 34 36 37 39 40 41 42 43 44 45 46
15 14 13 11 11 11 11 12 12 13 15 16 18 19 22 23 25 27 29 31 34 36 38 40 41 42 43 44 45 46 46 47
14 14 13 12 12 12 13 13 14 15 16 18 19 21 23 25 27 30 32 34 36 38 40 41 42 43 45 46 46 47 47 47
14 14 13 13 13 14 14 15 16 17 18 19 21 23 26 27 30 31 33 35 38 39 41 42 43 45 46 47 47 48 48 46
15 15 15 15 15 16 17 17 18 19 20 22 24 27 27 30 32 33 34 37 38 40 42 43 44 46 47 48 48 48 47 47
15 16 16 17 17 18 18 20 20 21 23 25 27 28 29 31 32 34 36 38 39 41 42 43 45 46 47 47 47 47 47 46
16 17 18 19 19 20 21 22 22 24 26 27 29 30 31 32 34 36 37 38 40 41 42 44 45 46 47 47 47 46 45 44
18 19 20 21 22 22 23 24 25 27 28 31 31 30 32 34 35 36 38 39 40 42 43 44 46 47 47 47 45 45 44 41
20 21 22 23 24 24 25 26 27 29 31 31 30 32 34 35 36 37 39 39 41 43 44 45 46 47 47 45 44 42 40 37
22 23 24 25 26 26 27 28 29 30 31 29 31 33 35 36 36 37 39 41 42 43 44 45 46 46 45 43 42 40 38 35
24 25 26 26 27 28 28 29 29 30 30 31 33 34 35 36 37 38 40 42 43 44 44 45 45 45 42 41 41 38 36 33
25 26 27 27 28 28 29 29 29 29 30 31 34 35 35 36 37 39 41 42 43 45 45 46 45 44 41 41 39 36 34 31
26 26 27 27 28 28 28 28 29 30 31 33 34 34 35 36 38 40 41 43 44 45 45 44 44 43 40 38 36 34 31 28
25 26 27 27 27 28 27 28 30 30 32 33 34 34 36 38 39 40 42 43 44 45 44 43 43 41 38 35 34 32 28 26
Wind_Direction
190 200 207 212 216 227 240 250 261 272 279 284 287 296 273 276 289 296 298 300 304 306 306 307 308 307 307 306 306 305 304 303
211 216 222 225 229 243 251 261 269 276 281 287 285 287 288 290 293 297 299 303 306 308 309 310 310 310 309 308 307 307 306 305
225 227 233 238 244 253 257 264 273 273 279 279 287 291 292 294 297 299 302 305 307 308 309 310 310 309 309 308 307 306 306 306
230 233 239 246 252 256 256 261 261 269 274 281 286 291 295 297 299 301 303 306 307 308 309 310 310 309 308 307 307 307 306 305
236 240 245 251 249 247 248 252 257 268 271 282 286 292 296 298 299 301 304 306 307 308 310 310 310 309 308 307 307 306 305 304
236 240 242 236 233 236 244 252 258 267 275 283 288 294 298 299 301 302 304 306 308 309 310 310 310 309 308 307 306 306 304 303
228 227 224 224 229 238 246 256 265 272 278 286 290 295 299 300 302 304 305 307 308 309 310 310 310 309 308 307 306 305 304 302
218 217 220 226 234 244 258 262 267 275 282 287 293 297 300 300 302 305 305 307 308 309 310 310 310 309 309 308 307 306 305 302
216 218 226 235 243 253 262 266 272 278 283 289 294 300 302 301 303 305 305 307 309 310 310 310 310 310 310 309 308 307 306 303
222 228 237 244 253 260 268 269 275 280 285 289 294 298 300 302 303 305 306 308 309 311 311 311 311 312 311 310 309 308 306 304
232 238 246 252 259 266 269 272 277 281 286 291 294 296 299 304 304 306 307 309 310 311 312 312 313 313 313 312 310 309 307 306
243 249 253 258 264 269 271 275 278 283 287 292 294 294 299 303 305 306 308 309 311 312 313 313 314 315 314 313 311 310 309 307
252 256 259 263 267 270 273 276 280 283 288 292 292 292 299 302 304 306 308 310 311 312 313 314 315 315 315 314 313 312 311 308
260 262 265 266 269 272 276 278 282 286 290 292 290 295 299 302 304 306 308 310 312 313 313 314 315 316 316 315 314 313 311 309
266 267 268 269 271 274 277 280 284 288 291 289 293 296 300 302 304 306 309 310 312 313 314 315 316 315 316 315 315 313 312 309
270 270 271 271 274 276 278 283 285 288 289 291 295 298 300 302 304 306 309 310 312 312 314 314 315 315 314 315 314 313 311 309
273 273 273 273 276 278 280 283 285 288 290 292 296 298 300 301 304 306 309 310 312 312 313 313 314 314 314 313 313 312 310 308
276 275 275 276 278 279 281 283 287 290 290 295 297 298 300 302 305 307 310 311 312 312 312 313 313 313 313 312 312 311 309 307
279 278 278 278 279 280 281 285 289 289 293 296 298 299 300 303 305 307 309 311 313 313 313 313 313 312 311 310 311 310 308 306